Total_Precipitation_Accumulation
0.54 0.69 0.79 0.75 0.78 0.83 0.73 0.67 0.63 0.51 0.42 0.43 0.40 0.39 0.41 0.37 0.33 0.34 0.36 0.33 0.36 0.28 0.23 0.15 0.11 0.11 0.17 0.21 0.19 0.19 0.24 0.27 0.25 0.24 0.29 0.34 0.35 0.44 0.51 0.59 0.64 0.69 0.72 0.80
0.54 0.57 0.53 0.54 0.61 0.72 0.72 0.72 0.67 0.59 0.43 0.40 0.40 0.41 0.37 0.34 0.32 0.27 0.24 0.22 0.26 0.24 0.22 0.15 0.10 0.08 0.06 0.07 0.10 0.13 0.15 0.18 0.18 0.18 0.23 0.32 0.39 0.45 0.58 0.74 0.85 0.87 0.85 0.91
0.50 0.47 0.41 0.44 0.51 0.64 0.63 0.59 0.53 0.59 0.53 0.48 0.50 0.51 0.41 0.38 0.34 0.27 0.21 0.20 0.23 0.22 0.19 0.16 0.13 0.10 0.06 0.05 0.05 0.08 0.12 0.16 0.16 0.23 0.41 0.68 0.93 1.01 1.03 1.05 1.19 1.29 1.24 1.19
0.61 0.42 0.36 0.38 0.43 0.47 0.64 0.48 0.41 0.51 0.63 0.60 0.49 0.54 0.38 0.37 0.38 0.32 0.25 0.21 0.21 0.22 0.20 0.16 0.13 0.12 0.07 0.06 0.05 0.06 0.11 0.16 0.20 0.36 0.69 1.07 1.40 1.49 1.50 1.62 1.66 1.72 1.64 1.50
0.49 0.33 0.31 0.35 0.35 0.41 0.61 0.49 0.49 0.53 0.56 0.52 0.34 0.34 0.28 0.30 0.37 0.35 0.31 0.29 0.28 0.25 0.22 0.18 0.15 0.13 0.12 0.13 0.14 0.15 0.22 0.34 0.51 0.66 0.83 1.13 1.33 1.44 1.59 1.75 1.89 2.00 2.11 2.09
0.35 0.27 0.29 0.31 0.31 0.35 0.45 0.54 0.65 0.65 0.61 0.57 0.27 0.24 0.26 0.27 0.29 0.31 0.32 0.34 0.32 0.27 0.21 0.19 0.17 0.18 0.22 0.27 0.29 0.32 0.42 0.51 0.59 0.70 0.84 0.98 1.07 1.24 1.44 1.59 1.76 1.90 2.02 2.04
0.35 0.30 0.25 0.24 0.38 0.41 0.43 0.61 0.84 0.91 0.84 0.59 0.22 0.21 0.25 0.21 0.20 0.22 0.25 0.24 0.23 0.24 0.22 0.20 0.19 0.25 0.30 0.36 0.39 0.46 0.54 0.63 0.66 0.73 0.83 0.91 0.97 1.10 1.27 1.32 1.36 1.40 1.39 1.43
0.34 0.36 0.23 0.19 0.26 0.32 0.34 0.42 0.68 0.82 0.67 0.46 0.23 0.28 0.30 0.19 0.14 0.10 0.13 0.16 0.19 0.26 0.27 0.26 0.25 0.33 0.40 0.45 0.54 0.62 0.70 0.71 0.73 0.80 0.89 0.90 0.99 1.11 1.21 1.15 1.10 1.13 1.16 1.24
0.30 0.29 0.16 0.16 0.17 0.20 0.31 0.32 0.37 0.46 0.37 0.38 0.27 0.27 0.20 0.10 0.08 0.08 0.13 0.20 0.27 0.35 0.37 0.37 0.38 0.44 0.48 0.55 0.63 0.69 0.74 0.77 0.83 0.86 0.95 1.09 1.13 1.13 1.11 1.00 0.95 0.97 0.93 0.94
0.24 0.28 0.20 0.18 0.21 0.21 0.24 0.31 0.39 0.44 0.47 0.46 0.30 0.26 0.21 0.14 0.14 0.18 0.24 0.32 0.42 0.52 0.54 0.54 0.59 0.64 0.65 0.63 0.68 0.74 0.81 0.87 0.90 0.92 1.03 1.20 1.14 0.92 0.76 0.66 0.71 0.75 0.80 0.84
0.16 0.25 0.25 0.21 0.19 0.21 0.24 0.24 0.30 0.36 0.35 0.53 0.64 0.63 0.54 0.52 0.43 0.47 0.50 0.57 0.72 0.74 0.76 0.75 0.77 0.80 0.74 0.73 0.76 0.79 0.84 0.94 0.98 0.94 1.03 1.06 0.85 0.61 0.49 0.48 0.46 0.45 0.47 0.53
0.11 0.19 0.23 0.18 0.14 0.13 0.19 0.20 0.20 0.34 0.37 0.45 0.74 0.81 0.74 0.76 0.73 0.83 0.90 1.04 0.98 0.93 0.92 0.84 0.78 0.75 0.64 0.63 0.70 0.76 0.86 0.90 0.84 0.81 0.79 0.65 0.47 0.38 0.35 0.31 0.26 0.22 0.22 0.22
0.10 0.16 0.27 0.28 0.23 0.14 0.14 0.12 0.11 0.17 0.34 0.44 0.74 0.84 0.68 0.75 0.85 1.00 1.09 1.10 0.91 0.76 0.65 0.60 0.57 0.50 0.44 0.46 0.50 0.55 0.67 0.73 0.55 0.44 0.42 0.39 0.32 0.30 0.26 0.22 0.19 0.17 0.17 0.16
0.11 0.14 0.23 0.29 0.25 0.13 0.12 0.09 0.09 0.14 0.31 0.37 0.52 0.61 0.58 0.67 0.83 0.92 0.95 0.83 0.61 0.45 0.36 0.30 0.24 0.22 0.24 0.26 0.25 0.23 0.28 0.38 0.32 0.26 0.23 0.23 0.23 0.23 0.23 0.23 0.24 0.18 0.15 0.16
0.11 0.13 0.13 0.12 0.08 0.07 0.07 0.07 0.09 0.12 0.17 0.29 0.38 0.42 0.45 0.46 0.48 0.50 0.54 0.49 0.37 0.25 0.17 0.11 0.10 0.11 0.14 0.15 0.13 0.11 0.09 0.11 0.16 0.17 0.16 0.18 0.18 0.19 0.18 0.20 0.20 0.17 0.14 0.12
0.10 0.11 0.08 0.09 0.06 0.05 0.04 0.05 0.08 0.10 0.14 0.21 0.23 0.25 0.22 0.18 0.14 0.13 0.16 0.19 0.16 0.10 0.06 0.05 0.05 0.05 0.06 0.06 0.05 0.05 0.03 0.04 0.05 0.05 0.06 0.08 0.11 0.13 0.15 0.15 0.15 0.13 0.11 0.09
0.10 0.10 0.10 0.09 0.06 0.07 0.06 0.03 0.05 0.08 0.09 0.12 0.15 0.18 0.18 0.12 0.06 0.04 0.05 0.06 0.07 0.06 0.06 0.06 0.04 0.04 0.05 0.05 0.04 0.05 0.04 0.03 0.03 0.02 0.02 0.03 0.04 0.05 0.05 0.05 0.06 0.05 0.04 0.04
0.08 0.10 0.11 0.10 0.11 0.11 0.05 0.03 0.03 0.03 0.03 0.05 0.07 0.09 0.10 0.07 0.03 0.03 0.03 0.04 0.04 0.04 0.05 0.06 0.05 0.04 0.06 0.06 0.06 0.07 0.06 0.05 0.03 0.02 0.02 0.02 0.02 0.03 0.03 0.02 0.02 0.02 0.02 0.02
0.08 0.10 0.13 0.12 0.12 0.06 0.04 0.04 0.04 0.02 0.01 0.01 0.02 0.02 0.02 0.02 0.02 0.02 0.02 0.03 0.03 0.04 0.04 0.05 0.06 0.05 0.06 0.06 0.08 0.08 0.07 0.05 0.04 0.03 0.02 0.02 0.02 0.03 0.03 0.03 0.02 0.02 0.02 0.03
0.09 0.10 0.13 0.13 0.12 0.10 0.05 0.03 0.02 0.02 0.02 0.01 0.01 0.01 0.01 0.01 0.01 0.01 0.01 0.01 0.02 0.03 0.03 0.04 0.04 0.04 0.04 0.05 0.07 0.08 0.07 0.05 0.03 0.03 0.04 0.04 0.03 0.04 0.04 0.04 0.04 0.04 0.04 0.04
0.08 0.09 0.09 0.11 0.10 0.06 0.02 0.02 0.02 0.04 0.03 0.01 0.01 0.01 0.01 0.00 0.01 0.01 0.01 0.01 0.02 0.02 0.02 0.03 0.04 0.04 0.03 0.03 0.05 0.07 0.08 0.05 0.03 0.04 0.05 0.05 0.04 0.04 0.07 0.08 0.06 0.05 0.05 0.05
0.08 0.07 0.06 0.07 0.09 0.06 0.02 0.02 0.02 0.02 0.01 0.01 0.01 0.01 0.01 0.01 0.00 0.00 0.01 0.01 0.01 0.01 0.02 0.02 0.03 0.02 0.03 0.04 0.05 0.06 0.08 0.07 0.05 0.05 0.06 0.06 0.07 0.07 0.09 0.09 0.07 0.06 0.06 0.06
0.08 0.07 0.06 0.04 0.04 0.03 0.02 0.03 0.02 0.01 0.01 0.01 0.01 0.01 0.01 0.01 0.01 0.00 0.00 0.01 0.01 0.01 0.01 0.02 0.02 0.02 0.02 0.03 0.04 0.05 0.07 0.08 0.07 0.06 0.06 0.07 0.07 0.07 0.08 0.08 0.07 0.06 0.07 0.08
0.08 0.06 0.06 0.04 0.02 0.03 0.03 0.02 0.01 0.01 0.01 0.01 0.01 0.01 0.01 0.01 0.01 0.00 0.00 0.01 0.01 0.00 0.00 0.01 0.02 0.02 0.02 0.03 0.04 0.07 0.09 0.10 0.10 0.09 0.08 0.07 0.07 0.07 0.07 0.07 0.06 0.05 0.06 0.06
0.07 0.06 0.06 0.06 0.03 0.03 0.04 0.02 0.01 0.01 0.00 0.00 0.00 0.01 0.01 0.01 0.00 0.00 0.00 0.01 0.01 0.00 0.01 0.01 0.02 0.02 0.03 0.03 0.05 0.06 0.08 0.10 0.10 0.11 0.09 0.08 0.07 0.06 0.07 0.06 0.05 0.04 0.04 0.05
0.04 0.04 0.06 0.07 0.04 0.03 0.03 0.02 0.01 0.01 0.00 0.00 0.00 0.00 0.01 0.01 0.01 0.00 0.01 0.01 0.01 0.01 0.01 0.03 0.04 0.04 0.04 0.04 0.05 0.06 0.07 0.07 0.08 0.10 0.09 0.07 0.06 0.05 0.05 0.06 0.05 0.05 0.04 0.04